| time (UTC) | temp F | wind direction | speed MPH | gust MPH | rain 1hr in | rain 24hr in | rain mn in | humidity % | barometer mb |
| 20260901085520 | 54 | 28 | 0.0 | 2.0 | 0.00 | 0.00 | 0.00 | 89 | 1015.1 |
| 20260901085033 | 54 | 1 | 1.0 | 1.0 | 0.00 | 0.00 | 0.00 | 89 | 1015.2 |
| 20260901084532 | 54 | 28 | 0.0 | 1.0 | 0.00 | 0.00 | 0.00 | 88 | 1015.2 |
| 20260901084023 | 55 | 89 | 0.0 | 2.0 | 0.00 | 0.00 | 0.00 | 89 | 1015.1 |
| 20260901083525 | 55 | 1 | 0.0 | 2.0 | 0.00 | 0.00 | 0.00 | 89 | 1015.1 |
| 20260901083032 | 55 | 46 | 1.0 | 2.0 | 0.00 | 0.00 | 0.00 | 89 | 1015.2 |
| 20260901082534 | 55 | 1 | 0.0 | 2.0 | 0.00 | 0.00 | 0.00 | 89 | 1015.2 |
| 20260901082025 | 55 | 46 | 0.0 | 2.0 | 0.00 | 0.00 | 0.00 | 88 | 1015.1 |
| 20260901081519 | 55 | 35 | 0.0 | 2.0 | 0.00 | 0.00 | 0.00 | 88 | 1015.1 |
| 20260901081033 | 55 | 28 | 1.0 | 2.0 | 0.00 | 0.00 | 0.00 | 88 | 1015.2 |
| 20260901080556 | 55 | 46 | 1.0 | 2.0 | 0.00 | 0.00 | 0.00 | 88 | 1015.1 |
| 20260901080018 | 55 | 89 | 1.0 | 2.0 | 0.00 | 0.00 | 0.00 | 88 | 1015.2 |
| 20260901075539 | 55 | 89 | 1.0 | 2.0 | 0.00 | 0.00 | 0.00 | 88 | 1015.2 |
| 20260901075029 | 56 | 347 | 0.0 | 2.0 | 0.00 | 0.00 | 0.00 | 88 | 1015.3 |
| 20260901074530 | 56 | 1 | 1.0 | 2.0 | 0.00 | 0.00 | 0.00 | 88 | 1015.2 |
| 20260901074043 | 56 | 178 | 1.0 | 2.0 | 0.00 | 0.00 | 0.00 | 88 | 1015.3 |
| 20260901073518 | 56 | 46 | 1.0 | 2.0 | 0.00 | 0.00 | 0.00 | 88 | 1015.3 |
| 20260901073016 | 56 | 63 | 1.0 | 2.0 | 0.00 | 0.00 | 0.00 | 88 | 1015.3 |
| 20260901072518 | 56 | 1 | 1.0 | 2.0 | 0.00 | 0.00 | 0.00 | 88 | 1015.3 |
| 20260901072015 | 56 | 331 | 1.0 | 2.0 | 0.00 | 0.00 | 0.00 | 88 | 1015.2 |
| 20260901071536 | 56 | 1 | 1.0 | 1.0 | 0.00 | 0.00 | 0.00 | 87 | 1015.2 |
| 20260901071027 | 56 | 89 | 0.0 | 1.0 | 0.00 | 0.00 | 0.00 | 87 | 1015.3 |
| 20260901070540 | 56 | 46 | 0.0 | 1.0 | 0.00 | 0.00 | 0.00 | 87 | 1015.2 |
| 20260901070027 | 56 | 331 | 0.0 | 1.0 | 0.00 | 0.00 | 0.00 | 87 | 1015.2 |
| 20260901065522 | 56 | 46 | 0.0 | 1.0 | 0.00 | 0.00 | 0.00 | 87 | 1015.2 |
| 20260901065032 | 57 | 46 | 0.0 | 1.0 | 0.00 | 0.00 | 0.00 | 87 | 1015.1 |
| 20260901064534 | 57 | 89 | 0.0 | 1.0 | 0.00 | 0.00 | 0.00 | 87 | 1015.1 |
| 20260901064023 | 57 | 63 | 0.0 | 1.0 | 0.00 | 0.00 | 0.00 | 86 | 1015.0 |
| 20260901063518 | 57 | 63 | 0.0 | 1.0 | 0.00 | 0.00 | 0.00 | 86 | 1015.0 |
| 20260901063015 | 57 | 269 | 0.0 | 1.0 | 0.00 | 0.00 | 0.00 | 86 | 1014.9 |
| 20260901062514 | 57 | 108 | 0.0 | 2.0 | 0.00 | 0.00 | 0.00 | 86 | 1014.9 |
| 20260901062032 | 57 | 89 | 1.0 | 2.0 | 0.00 | 0.00 | 0.00 | 86 | 1014.9 |
| 20260901061534 | 58 | 46 | 0.0 | 1.0 | 0.00 | 0.00 | 0.00 | 85 | 1014.9 |
| 20260901061026 | 58 | 331 | 0.0 | 1.0 | 0.00 | 0.00 | 0.00 | 85 | 1014.8 |
| 20260901060546 | 58 | 63 | 0.0 | 1.0 | 0.00 | 0.00 | 0.00 | 85 | 1014.8 |
| 20260901060031 | 58 | 46 | 0.0 | 2.0 | 0.00 | 0.00 | 0.00 | 85 | 1014.8 |
| 20260901055531 | 58 | 1 | 0.0 | 2.0 | 0.00 | 0.00 | 0.00 | 85 | 1014.8 |
| 20260901055022 | 58 | 1 | 0.0 | 1.0 | 0.00 | 0.00 | 0.00 | 84 | 1014.8 |
| 20260901054523 | 59 | 269 | 0.0 | 1.0 | 0.00 | 0.00 | 0.00 | 84 | 1014.7 |
| 20260901054056 | 59 | 28 | 0.0 | 2.0 | 0.00 | 0.00 | 0.00 | 84 | 1014.6 |
| 20260901053535 | 59 | 269 | 0.0 | 2.0 | 0.00 | 0.00 | 0.00 | 84 | 1014.7 |
| 20260901053013 | 59 | 28 | 0.0 | 2.0 | 0.00 | 0.00 | 0.00 | 83 | 1014.6 |
| 20260901052535 | 59 | 46 | 1.0 | 2.0 | 0.00 | 0.00 | 0.00 | 83 | 1014.6 |
| 20260901052047 | 60 | 1 | 1.0 | 1.0 | 0.00 | 0.00 | 0.00 | 83 | 1014.7 |
| 20260901051521 | 60 | 46 | 0.0 | 1.0 | 0.00 | 0.00 | 0.00 | 82 | 1014.6 |
| 20260901051035 | 60 | 331 | 0.0 | 1.0 | 0.00 | 0.00 | 0.00 | 82 | 1014.7 |
| 20260901050602 | 60 | 331 | 0.0 | 2.0 | 0.00 | 0.00 | 0.00 | 82 | 1014.8 |
| 20260901050027 | 61 | 46 | 1.0 | 2.0 | 0.00 | 0.00 | 0.00 | 81 | 1014.8 |
| 20260901045520 | 61 | 108 | 0.0 | 2.0 | 0.00 | 0.00 | 0.00 | 81 | 1014.8 |
| 20260901045049 | 61 | 46 | 1.0 | 2.0 | 0.00 | 0.00 | 0.00 | 81 | 1014.8 |
| 20260901044529 | 61 | 178 | 0.0 | 2.0 | 0.00 | 0.00 | 0.00 | 81 | 1014.7 |
| 20260901044026 | 62 | 269 | 0.0 | 2.0 | 0.00 | 0.00 | 0.00 | 81 | 1014.7 |
| 20260901043520 | 62 | 314 | 0.0 | 3.0 | 0.00 | 0.00 | 0.00 | 81 | 1014.8 |
| 20260901043031 | 62 | 314 | 1.0 | 3.0 | 0.00 | 0.00 | 0.00 | 81 | 1014.6 |
| 20260901042533 | 62 | 349 | 1.0 | 2.0 | 0.00 | 0.00 | 0.00 | 80 | 1014.6 |
| 20260901042020 | 62 | 314 | 0.0 | 2.0 | 0.00 | 0.00 | 0.00 | 80 | 1014.6 |
| 20260901041541 | 62 | 331 | 0.0 | 3.0 | 0.00 | 0.00 | 0.00 | 80 | 1014.6 |
| 20260901041051 | 63 | 295 | 1.0 | 3.0 | 0.00 | 0.00 | 0.00 | 80 | 1014.5 |
| 20260901040624 | 63 | 46 | 1.0 | 3.0 | 0.00 | 0.00 | 0.00 | 80 | 1014.4 |
| 20260901040027 | 63 | 233 | 0.0 | 1.0 | 0.00 | 0.00 | 0.00 | 79 | 1014.4 |
| 20260901035517 | 63 | 46 | 0.0 | 2.0 | 0.00 | 0.00 | 0.00 | 79 | 1014.3 |
| 20260901035028 | 63 | 1 | 0.0 | 2.0 | 0.00 | 0.00 | 0.00 | 79 | 1014.3 |
| 20260901034531 | 63 | 295 | 1.0 | 2.0 | 0.00 | 0.00 | 0.00 | 79 | 1014.2 |
| 20260901034023 | 64 | 269 | 1.0 | 2.0 | 0.00 | 0.00 | 0.00 | 78 | 1014.1 |
| 20260901033523 | 64 | 269 | 1.0 | 2.0 | 0.00 | 0.00 | 0.00 | 78 | 1014.1 |
| 20260901033021 | 64 | 286 | 1.0 | 2.0 | 0.00 | 0.00 | 0.00 | 77 | 1014.1 |
| 20260901032519 | 64 | 222 | 1.0 | 2.0 | 0.00 | 0.00 | 0.00 | 77 | 1014.0 |
| 20260901032039 | 65 | 269 | 1.0 | 2.0 | 0.00 | 0.00 | 0.00 | 76 | 1013.9 |
| 20260901031521 | 65 | 269 | 1.0 | 2.0 | 0.00 | 0.00 | 0.00 | 76 | 1013.9 |
| 20260901031033 | 65 | 253 | 1.0 | 2.0 | 0.00 | 0.00 | 0.00 | 75 | 1014.0 |
| 20260901030607 | 65 | 324 | 1.0 | 2.0 | 0.00 | 0.00 | 0.00 | 74 | 1013.9 |
| 20260901030029 | 66 | 269 | 1.0 | 3.0 | 0.00 | 0.00 | 0.00 | 74 | 1013.8 |
| 20260901025531 | 66 | 314 | 1.0 | 3.0 | 0.00 | 0.00 | 0.00 | 73 | 1013.7 |
| 20260901025044 | 67 | 250 | 1.0 | 1.0 | 0.00 | 0.00 | 0.00 | 72 | 1013.8 |
| 20260901024525 | 67 | 286 | 0.0 | 2.0 | 0.00 | 0.00 | 0.00 | 71 | 1013.7 |
| 20260901024014 | 68 | 269 | 1.0 | 2.0 | 0.00 | 0.00 | 0.00 | 70 | 1013.7 |
| 20260901023552 | 68 | 197 | 0.0 | 3.0 | 0.00 | 0.00 | 0.00 | 70 | 1013.7 |
| 20260901023018 | 69 | 269 | 1.0 | 4.0 | 0.00 | 0.00 | 0.00 | 69 | 1013.7 |
| 20260901022518 | 69 | 18 | 1.0 | 4.0 | 0.00 | 0.00 | 0.00 | 69 | 1013.8 |
| 20260901022038 | 70 | 1 | 1.0 | 3.0 | 0.00 | 0.00 | 0.00 | 68 | 1013.8 |
| 20260901021557 | 70 | 28 | 0.0 | 3.0 | 0.00 | 0.00 | 0.00 | 68 | 1013.9 |
| 20260901021046 | 70 | 331 | 0.0 | 3.0 | 0.00 | 0.00 | 0.00 | 67 | 1013.7 |
| 20260901020548 | 71 | 295 | 0.0 | 4.0 | 0.00 | 0.00 | 0.00 | 67 | 1013.8 |
| 20260901020021 | 71 | 240 | 1.0 | 4.0 | 0.00 | 0.00 | 0.00 | 67 | 1013.7 |
| 20260901015514 | 71 | 1 | 0.0 | 2.0 | 0.00 | 0.00 | 0.00 | 66 | 1013.6 |
| 20260901015052 | 72 | 178 | 1.0 | 5.0 | 0.00 | 0.00 | 0.00 | 66 | 1013.7 |
| 20260901014528 | 72 | 269 | 2.0 | 5.0 | 0.00 | 0.00 | 0.00 | 65 | 1013.7 |
| 20260901014039 | 73 | 223 | 1.0 | 5.0 | 0.00 | 0.00 | 0.00 | 65 | 1013.7 |
| 20260901013521 | 73 | 117 | 1.0 | 5.0 | 0.00 | 0.00 | 0.00 | 64 | 1013.8 |
| 20260901013014 | 73 | 349 | 2.0 | 4.0 | 0.00 | 0.00 | 0.00 | 64 | 1013.6 |
| 20260901012535 | 74 | 307 | 2.0 | 5.0 | 0.00 | 0.00 | 0.00 | 63 | 1013.7 |
| 20260901012024 | 74 | 220 | 1.0 | 7.0 | 0.00 | 0.00 | 0.00 | 62 | 1013.6 |
| 20260901011545 | 75 | 131 | 1.0 | 7.0 | 0.00 | 0.00 | 0.00 | 62 | 1013.6 |
| 20260901011021 | 75 | 46 | 2.0 | 5.0 | 0.00 | 0.00 | 0.00 | 62 | 1013.6 |
| 20260901010546 | 76 | 319 | 2.0 | 4.0 | 0.00 | 0.00 | 0.00 | 61 | 1013.4 |
| 20260901010030 | 76 | 306 | 2.0 | 9.0 | 0.00 | 0.00 | 0.00 | 61 | 1013.5 |
| 20260901005531 | 76 | 245 | 4.0 | 9.0 | 0.00 | 0.00 | 0.00 | 61 | 1013.5 |
| 20260901005020 | 76 | 169 | 3.0 | 7.0 | 0.00 | 0.00 | 0.00 | 60 | 1013.5 |
| 20260901004523 | 77 | 257 | 3.0 | 8.0 | 0.00 | 0.00 | 0.00 | 59 | 1013.4 |
| 20260901004020 | 77 | 178 | 2.0 | 9.0 | 0.00 | 0.00 | 0.00 | 59 | 1013.4 |
| 20260901003522 | 78 | 1 | 4.0 | 9.0 | 0.00 | 0.00 | 0.00 | 58 | 1013.4 |
| 20260901003022 | 78 | 262 | 4.0 | 10.0 | 0.00 | 0.00 | 0.00 | 57 | 1013.3 |
| 20260901002523 | 79 | 238 | 3.0 | 7.0 | 0.00 | 0.00 | 0.00 | 57 | 1013.3 |
| 20260901002057 | 79 | 1 | 2.0 | 8.0 | 0.00 | 0.00 | 0.00 | 57 | 1013.3 |
| 20260901001536 | 79 | 207 | 3.0 | 8.0 | 0.00 | 0.00 | 0.00 | 57 | 1013.5 |
| 20260901001026 | 79 | 222 | 3.0 | 9.0 | 0.00 | 0.00 | 0.00 | 57 | 1013.6 |
| 20260901000551 | 80 | 222 | 2.0 | 9.0 | 0.00 | 0.00 | 0.00 | 57 | 1013.6 |
| 20260901000044 | 80 | 164 | 4.0 | 7.0 | 0.00 | 0.00 | 0.00 | 56 | 1013.6 |
| 20260831235541 | 80 | 63 | 3.0 | 7.0 | 0.00 | 0.00 | 0.00 | 55 | 1013.5 |
| 20260831235054 | 80 | 218 | 3.0 | 7.0 | 0.00 | 0.00 | 0.00 | 56 | 1013.5 |
| 20260831234533 | 81 | 276 | 3.0 | 7.0 | 0.00 | 0.00 | 0.00 | 56 | 1013.5 |
| 20260831234045 | 81 | 1 | 2.0 | 7.0 | 0.00 | 0.00 | 0.00 | 55 | 1013.4 |
| 20260831233542 | 81 | 1 | 3.0 | 7.0 | 0.00 | 0.00 | 0.00 | 56 | 1013.4 |
| 20260831233033 | 81 | 347 | 2.0 | 10.0 | 0.00 | 0.00 | 0.00 | 56 | 1013.4 |
| 20260831232534 | 81 | 314 | 4.0 | 9.0 | 0.00 | 0.00 | 0.00 | 56 | 1013.3 |
| 20260831232025 | 81 | 335 | 4.0 | 10.0 | 0.00 | 0.00 | 0.00 | 56 | 1013.4 |
| 20260831231525 | 82 | 274 | 3.0 | 10.0 | 0.00 | 0.00 | 0.00 | 55 | 1013.4 |
| 20260831231038 | 82 | 240 | 5.0 | 9.0 | 0.00 | 0.00 | 0.00 | 55 | 1013.4 |
| 20260831230558 | 83 | 347 | 2.0 | 11.0 | 0.00 | 0.00 | 0.00 | 54 | 1013.4 |
| 20260831230023 | 83 | 269 | 4.0 | 11.0 | 0.00 | 0.00 | 0.00 | 54 | 1013.4 |
| 20260831225537 | 83 | 193 | 2.0 | 8.0 | 0.00 | 0.00 | 0.00 | 55 | 1013.4 |
| 20260831225049 | 83 | 46 | 4.0 | 8.0 | 0.00 | 0.00 | 0.00 | 54 | 1013.4 |
| 20260831224547 | 84 | 283 | 3.0 | 8.0 | 0.00 | 0.00 | 0.00 | 54 | 1013.4 |
| 20260831224014 | 84 | 219 | 3.0 | 7.0 | 0.00 | 0.00 | 0.00 | 54 | 1013.5 |
| 20260831223537 | 85 | 51 | 3.0 | 9.0 | 0.00 | 0.00 | 0.00 | 53 | 1013.5 |
| 20260831223029 | 84 | 253 | 3.0 | 12.0 | 0.00 | 0.00 | 0.00 | 53 | 1013.4 |
| 20260831222531 | 85 | 178 | 3.0 | 12.0 | 0.00 | 0.00 | 0.00 | 53 | 1013.5 |
| 20260831222023 | 85 | 321 | 2.0 | 9.0 | 0.00 | 0.00 | 0.00 | 53 | 1013.4 |
| 20260831221526 | 85 | 346 | 3.0 | 8.0 | 0.00 | 0.00 | 0.00 | 53 | 1013.5 |
| 20260831221033 | 85 | 15 | 2.0 | 8.0 | 0.00 | 0.00 | 0.00 | 55 | 1013.5 |
| 20260831220601 | 85 | 1 | 3.0 | 6.0 | 0.00 | 0.00 | 0.00 | 56 | 1013.7 |
| 20260831220031 | 85 | 354 | 2.0 | 8.0 | 0.00 | 0.00 | 0.00 | 55 | 1013.8 |
| 20260831215531 | 85 | 238 | 3.0 | 10.0 | 0.00 | 0.00 | 0.00 | 54 | 1013.9 |
| 20260831215021 | 85 | 310 | 3.0 | 9.0 | 0.00 | 0.00 | 0.00 | 54 | 1014.0 |
| 20260831214539 | 85 | 360 | 3.0 | 8.0 | 0.00 | 0.00 | 0.00 | 56 | 1014.0 |
| 20260831214017 | 84 | 285 | 2.0 | 11.0 | 0.00 | 0.00 | 0.00 | 56 | 1014.0 |
| 20260831213557 | 83 | 331 | 3.0 | 11.0 | 0.00 | 0.00 | 0.00 | 57 | 1014.0 |
| 20260831213025 | 84 | 350 | 2.0 | 8.0 | 0.00 | 0.00 | 0.00 | 56 | 1014.1 |
| 20260831212525 | 85 | 338 | 3.0 | 9.0 | 0.00 | 0.00 | 0.00 | 55 | 1014.1 |
| 20260831212057 | 84 | 226 | 4.0 | 13.0 | 0.00 | 0.00 | 0.00 | 55 | 1014.0 |
| 20260831211536 | 84 | 321 | 4.0 | 13.0 | 0.00 | 0.00 | 0.00 | 55 | 1014.0 |
| 20260831211027 | 84 | 297 | 2.0 | 8.0 | 0.00 | 0.00 | 0.00 | 55 | 1014.1 |
| 20260831210548 | 84 | 193 | 3.0 | 11.0 | 0.00 | 0.00 | 0.00 | 57 | 1014.1 |
| 20260831210022 | 84 | 300 | 3.0 | 11.0 | 0.00 | 0.00 | 0.00 | 55 | 1014.1 |
| 20260831205520 | 85 | 316 | 3.0 | 10.0 | 0.00 | 0.00 | 0.00 | 56 | 1014.0 |
| 20260831205018 | 85 | 310 | 4.0 | 10.0 | 0.00 | 0.00 | 0.00 | 55 | 1014.1 |
| 20260831204518 | 85 | 276 | 3.0 | 8.0 | 0.00 | 0.00 | 0.00 | 55 | 1014.1 |
| 20260831204047 | 84 | 199 | 2.0 | 6.0 | 0.00 | 0.00 | 0.00 | 58 | 1014.0 |
| 20260831203524 | 84 | 160 | 2.0 | 9.0 | 0.00 | 0.00 | 0.00 | 57 | 1014.1 |
| 20260831203014 | 83 | 32 | 3.0 | 9.0 | 0.00 | 0.00 | 0.00 | 57 | 1014.1 |
| 20260831202553 | 84 | 309 | 5.0 | 10.0 | 0.00 | 0.00 | 0.00 | 56 | 1014.1 |
| 20260831202023 | 84 | 290 | 3.0 | 10.0 | 0.00 | 0.00 | 0.00 | 57 | 1014.2 |
| 20260831201524 | 83 | 227 | 3.0 | 10.0 | 0.00 | 0.00 | 0.00 | 58 | 1014.1 |
| 20260831201016 | 83 | 314 | 4.0 | 10.0 | 0.00 | 0.00 | 0.00 | 56 | 1014.2 |
| 20260831200558 | 84 | 238 | 4.0 | 9.0 | 0.00 | 0.00 | 0.00 | 56 | 1014.1 |
| 20260831200040 | 84 | 324 | 4.0 | 9.0 | 0.00 | 0.00 | 0.00 | 57 | 1014.1 |
| 20260831195537 | 83 | 243 | 4.0 | 10.0 | 0.00 | 0.00 | 0.00 | 56 | 1014.2 |
| 20260831195027 | 83 | 195 | 3.0 | 13.0 | 0.00 | 0.00 | 0.00 | 56 | 1014.2 |
| 20260831194523 | 83 | 203 | 5.0 | 13.0 | 0.00 | 0.00 | 0.00 | 56 | 1014.3 |
| 20260831194022 | 84 | 243 | 4.0 | 8.0 | 0.00 | 0.00 | 0.00 | 55 | 1014.3 |
| 20260831193539 | 84 | 269 | 1.0 | 9.0 | 0.00 | 0.00 | 0.00 | 55 | 1014.3 |
| 20260831193017 | 83 | 240 | 4.0 | 9.0 | 0.00 | 0.00 | 0.00 | 57 | 1014.4 |
| 20260831192516 | 82 | 269 | 3.0 | 9.0 | 0.00 | 0.00 | 0.00 | 57 | 1014.4 |
| 20260831192027 | 83 | 269 | 3.0 | 9.0 | 0.00 | 0.00 | 0.00 | 56 | 1014.4 |
| 20260831191540 | 83 | 15 | 3.0 | 9.0 | 0.00 | 0.00 | 0.00 | 54 | 1014.5 |
| 20260831191027 | 83 | 323 | 3.0 | 10.0 | 0.00 | 0.00 | 0.00 | 54 | 1014.6 |
| 20260831190550 | 84 | 311 | 4.0 | 10.0 | 0.00 | 0.00 | 0.00 | 52 | 1014.6 |
| 20260831190023 | 84 | 293 | 2.0 | 8.0 | 0.00 | 0.00 | 0.00 | 52 | 1014.6 |
| 20260831185517 | 84 | 220 | 3.0 | 8.0 | 0.00 | 0.00 | 0.00 | 52 | 1014.6 |
| 20260831185031 | 85 | 164 | 2.0 | 8.0 | 0.00 | 0.00 | 0.00 | 52 | 1014.7 |
| 20260831184553 | 85 | 140 | 3.0 | 9.0 | 0.00 | 0.00 | 0.00 | 51 | 1014.6 |
| 20260831184019 | 84 | 189 | 3.0 | 10.0 | 0.00 | 0.00 | 0.00 | 49 | 1014.5 |
| 20260831183538 | 84 | 216 | 2.0 | 8.0 | 0.00 | 0.00 | 0.00 | 48 | 1014.6 |
| 20260831183014 | 83 | 276 | 3.0 | 7.0 | 0.00 | 0.00 | 0.00 | 49 | 1014.6 |
| 20260831182536 | 83 | 340 | 3.0 | 6.0 | 0.00 | 0.00 | 0.00 | 48 | 1014.6 |
| 20260831182027 | 83 | 250 | 3.0 | 6.0 | 0.00 | 0.00 | 0.00 | 48 | 1014.6 |
| 20260831181517 | 82 | 340 | 2.0 | 5.0 | 0.00 | 0.00 | 0.00 | 50 | 1014.6 |
| 20260831181049 | 82 | 89 | 1.0 | 6.0 | 0.00 | 0.00 | 0.00 | 52 | 1014.7 |
| 20260831180602 | 82 | 96 | 3.0 | 6.0 | 0.00 | 0.00 | 0.00 | 51 | 1014.6 |
| 20260831180047 | 81 | 305 | 1.0 | 3.0 | 0.00 | 0.00 | 0.00 | 50 | 1014.6 |
| 20260831175526 | 81 | 269 | 1.0 | 8.0 | 0.00 | 0.00 | 0.00 | 50 | 1014.6 |
| 20260831175033 | 81 | 46 | 2.0 | 8.0 | 0.00 | 0.00 | 0.00 | 49 | 1014.6 |
| 20260831174533 | 80 | 171 | 2.0 | 5.0 | 0.00 | 0.00 | 0.00 | 52 | 1014.6 |
| 20260831174025 | 80 | 129 | 2.0 | 4.0 | 0.00 | 0.00 | 0.00 | 52 | 1014.6 |
| 20260831173524 | 80 | 300 | 2.0 | 7.0 | 0.00 | 0.00 | 0.00 | 57 | 1014.5 |
| 20260831173015 | 80 | 56 | 1.0 | 7.0 | 0.00 | 0.00 | 0.00 | 56 | 1014.6 |
| 20260831172534 | 79 | 140 | 1.0 | 7.0 | 0.00 | 0.00 | 0.00 | 56 | 1014.6 |
| 20260831172021 | 79 | 59 | 1.0 | 7.0 | 0.00 | 0.00 | 0.00 | 56 | 1014.6 |
| 20260831171520 | 79 | 89 | 2.0 | 5.0 | 0.00 | 0.00 | 0.00 | 56 | 1014.6 |
| 20260831171040 | 79 | 42 | 2.0 | 4.0 | 0.00 | 0.00 | 0.00 | 56 | 1014.6 |
| 20260831170544 | 78 | 89 | 2.0 | 5.0 | 0.00 | 0.00 | 0.00 | 59 | 1014.5 |
| 20260831170028 | 78 | 98 | 1.0 | 5.0 | 0.00 | 0.00 | 0.00 | 60 | 1014.5 |
| 20260831165517 | 77 | 72 | 2.0 | 8.0 | 0.00 | 0.00 | 0.00 | 59 | 1014.5 |
| 20260831165017 | 77 | 206 | 1.0 | 4.0 | 0.00 | 0.00 | 0.00 | 61 | 1014.4 |
| 20260831164538 | 77 | 213 | 1.0 | 6.0 | 0.00 | 0.00 | 0.00 | 62 | 1014.4 |
| 20260831164014 | 76 | 46 | 3.0 | 7.0 | 0.00 | 0.00 | 0.00 | 63 | 1014.4 |
| 20260831163555 | 76 | 108 | 2.0 | 7.0 | 0.00 | 0.00 | 0.00 | 63 | 1014.3 |
| 20260831163020 | 76 | 147 | 3.0 | 7.0 | 0.00 | 0.00 | 0.00 | 63 | 1014.3 |
| 20260831162541 | 75 | 193 | 2.0 | 5.0 | 0.00 | 0.00 | 0.00 | 64 | 1014.4 |
| 20260831162036 | 75 | 114 | 2.0 | 6.0 | 0.00 | 0.00 | 0.00 | 64 | 1014.3 |
| 20260831161535 | 74 | 184 | 3.0 | 6.0 | 0.00 | 0.00 | 0.00 | 66 | 1014.3 |
| 20260831161047 | 74 | 132 | 2.0 | 6.0 | 0.00 | 0.00 | 0.00 | 67 | 1014.3 |
| 20260831160607 | 73 | 112 | 2.0 | 6.0 | 0.00 | 0.00 | 0.00 | 68 | 1014.3 |
| 20260831160031 | 72 | 135 | 3.0 | 6.0 | 0.00 | 0.00 | 0.00 | 70 | 1014.3 |
| 20260831155530 | 71 | 144 | 2.0 | 6.0 | 0.00 | 0.00 | 0.00 | 71 | 1014.3 |
| 20260831155022 | 70 | 178 | 1.0 | 5.0 | 0.00 | 0.00 | 0.00 | 74 | 1014.4 |
| 20260831154519 | 69 | 51 | 2.0 | 6.0 | 0.00 | 0.00 | 0.00 | 75 | 1014.4 |
| 20260831154053 | 68 | 105 | 2.0 | 6.0 | 0.00 | 0.00 | 0.00 | 76 | 1014.4 |
| 20260831153532 | 66 | 89 | 2.0 | 5.0 | 0.00 | 0.00 | 0.00 | 79 | 1014.4 |
| 20260831153022 | 65 | 148 | 1.0 | 5.0 | 0.00 | 0.00 | 0.00 | 83 | 1014.3 |
| 20260831152523 | 64 | 46 | 1.0 | 5.0 | 0.00 | 0.00 | 0.00 | 86 | 1014.3 |
| 20260831152019 | 63 | 135 | 1.0 | 5.0 | 0.00 | 0.00 | 0.00 | 90 | 1014.2 |
| 20260831151520 | 62 | 197 | 1.0 | 2.0 | 0.00 | 0.00 | 0.00 | 92 | 1014.2 |
| 20260831151036 | 62 | 135 | 1.0 | 2.0 | 0.00 | 0.00 | 0.00 | 92 | 1014.2 |
| 20260831150558 | 61 | 314 | 1.0 | 5.0 | 0.00 | 0.00 | 0.00 | 93 | 1014.1 |
| 20260831150023 | 60 | 89 | 2.0 | 5.0 | 0.00 | 0.00 | 0.00 | 92 | 1014.1 |
| 20260831145543 | 60 | 140 | 1.0 | 3.0 | 0.00 | 0.00 | 0.00 | 92 | 1014.1 |
| 20260831145022 | 59 | 213 | 1.0 | 2.0 | 0.00 | 0.00 | 0.00 | 92 | 1014.1 |
| 20260831144518 | 59 | 269 | 1.0 | 2.0 | 0.00 | 0.00 | 0.00 | 92 | 1014.1 |
| 20260831144017 | 58 | 135 | 1.0 | 2.0 | 0.00 | 0.00 | 0.00 | 92 | 1014.2 |
| 20260831143520 | 58 | 135 | 1.0 | 3.0 | 0.00 | 0.00 | 0.00 | 91 | 1014.0 |
| 20260831143017 | 58 | 142 | 2.0 | 3.0 | 0.00 | 0.00 | 0.00 | 91 | 1013.9 |
| 20260831142558 | 58 | 178 | 1.0 | 3.0 | 0.00 | 0.00 | 0.00 | 91 | 1013.9 |
| 20260831142027 | 58 | 124 | 0.0 | 2.0 | 0.00 | 0.00 | 0.00 | 91 | 1013.9 |
| 20260831141522 | 57 | 89 | 0.0 | 1.0 | 0.00 | 0.00 | 0.00 | 91 | 1013.8 |
| 20260831141021 | 57 | 46 | 0.0 | 1.0 | 0.00 | 0.00 | 0.00 | 91 | 1013.8 |
| 20260831140605 | 57 | 1 | 0.0 | 1.0 | 0.00 | 0.00 | 0.00 | 91 | 1013.8 |
| 20260831140029 | 57 | 1 | 0.0 | 1.0 | 0.00 | 0.00 | 0.00 | 91 | 1013.6 |
| 20260831135532 | 57 | 1 | 0.0 | 2.0 | 0.00 | 0.00 | 0.00 | 91 | 1013.5 |
| 20260831135022 | 57 | 117 | 0.0 | 2.0 | 0.00 | 0.00 | 0.00 | 91 | 1013.4 |
| 20260831134540 | 57 | 124 | 1.0 | 2.0 | 0.00 | 0.00 | 0.00 | 91 | 1013.4 |
| 20260831134030 | 57 | 135 | 0.0 | 1.0 | 0.00 | 0.00 | 0.00 | 91 | 1013.4 |
| 20260831133533 | 57 | 46 | 0.0 | 2.0 | 0.00 | 0.00 | 0.00 | 91 | 1013.3 |
| 20260831133024 | 57 | 340 | 0.0 | 2.0 | 0.00 | 0.00 | 0.00 | 91 | 1013.3 |
| 20260831132546 | 57 | 46 | 0.0 | 2.0 | 0.00 | 0.00 | 0.00 | 90 | 1013.2 |
| 20260831132035 | 57 | 1 | 0.0 | 2.0 | 0.00 | 0.00 | 0.00 | 90 | 1013.2 |
| 20260831131558 | 57 | 1 | 0.0 | 1.0 | 0.00 | 0.00 | 0.00 | 90 | 1013.2 |
| 20260831131027 | 57 | 1 | 0.0 | 1.0 | 0.00 | 0.00 | 0.00 | 90 | 1013.2 |
| 20260831130549 | 57 | 135 | 0.0 | 1.0 | 0.00 | 0.00 | 0.00 | 90 | 1013.2 |
| 20260831130022 | 57 | 1 | 0.0 | 2.0 | 0.00 | 0.00 | 0.00 | 90 | 1013.3 |
| 20260831125540 | 57 | 1 | 0.0 | 2.0 | 0.00 | 0.00 | 0.00 | 90 | 1013.3 |
| 20260831125034 | 57 | 28 | 0.0 | 1.0 | 0.00 | 0.00 | 0.00 | 89 | 1013.2 |
| 20260831124535 | 57 | 1 | 0.0 | 2.0 | 0.00 | 0.00 | 0.00 | 89 | 1013.3 |
| 20260831124055 | 57 | 269 | 0.0 | 2.0 | 0.00 | 0.00 | 0.00 | 89 | 1013.3 |
| 20260831123534 | 57 | 46 | 1.0 | 2.0 | 0.00 | 0.00 | 0.00 | 89 | 1013.3 |
| 20260831123025 | 58 | 89 | 0.0 | 2.0 | 0.00 | 0.00 | 0.00 | 89 | 1013.2 |
| 20260831122543 | 58 | 46 | 0.0 | 2.0 | 0.00 | 0.00 | 0.00 | 89 | 1013.1 |
| 20260831122014 | 58 | 117 | 0.0 | 1.0 | 0.00 | 0.00 | 0.00 | 89 | 1013.1 |
| 20260831121533 | 58 | 1 | 0.0 | 1.0 | 0.00 | 0.00 | 0.00 | 89 | 1013.0 |
| 20260831121027 | 58 | 46 | 0.0 | 1.0 | 0.00 | 0.00 | 0.00 | 89 | 1013.0 |
| 20260831120602 | 58 | 28 | 0.0 | 2.0 | 0.00 | 0.00 | 0.00 | 88 | 1013.0 |
| 20260831120041 | 58 | 1 | 0.0 | 2.0 | 0.00 | 0.00 | 0.00 | 88 | 1012.9 |
| 20260831115541 | 58 | 314 | 0.0 | 2.0 | 0.00 | 0.00 | 0.00 | 88 | 1012.9 |
| 20260831115032 | 58 | 46 | 1.0 | 2.0 | 0.00 | 0.00 | 0.00 | 88 | 1012.9 |
| 20260831114531 | 58 | 1 | 1.0 | 2.0 | 0.00 | 0.00 | 0.00 | 88 | 1013.0 |
| 20260831114024 | 58 | 46 | 0.0 | 1.0 | 0.00 | 0.00 | 0.00 | 88 | 1012.9 |
| 20260831113522 | 59 | 1 | 0.0 | 1.0 | 0.00 | 0.00 | 0.00 | 88 | 1012.9 |
| 20260831113033 | 59 | 1 | 0.0 | 1.0 | 0.00 | 0.00 | 0.00 | 88 | 1013.0 |
| 20260831112533 | 59 | 340 | 0.0 | 2.0 | 0.00 | 0.00 | 0.00 | 88 | 1013.0 |
| 20260831112024 | 59 | 1 | 0.0 | 2.0 | 0.00 | 0.00 | 0.00 | 87 | 1013.0 |
| 20260831111539 | 59 | 46 | 0.0 | 2.0 | 0.00 | 0.00 | 0.00 | 87 | 1013.1 |
| 20260831111029 | 59 | 89 | 0.0 | 2.0 | 0.00 | 0.00 | 0.00 | 87 | 1013.1 |
| 20260831110545 | 59 | 89 | 0.0 | 1.0 | 0.00 | 0.00 | 0.00 | 87 | 1013.1 |
| 20260831110017 | 59 | 89 | 0.0 | 1.0 | 0.00 | 0.00 | 0.00 | 87 | 1013.1 |
| 20260831105613 | 59 | 46 | 0.0 | 1.0 | 0.00 | 0.00 | 0.00 | 87 | 1013.2 |
| 20260831105022 | 59 | 1 | 0.0 | 1.0 | 0.00 | 0.00 | 0.00 | 86 | 1013.2 |
| 20260831104525 | 59 | 340 | 0.0 | 1.0 | 0.00 | 0.00 | 0.00 | 86 | 1013.3 |
| 20260831104053 | 60 | 269 | 0.0 | 1.0 | 0.00 | 0.00 | 0.00 | 86 | 1013.3 |
| 20260831103513 | 60 | 46 | 0.0 | 1.0 | 0.00 | 0.00 | 0.00 | 86 | 1013.3 |
| 20260831103031 | 60 | 178 | 0.0 | 1.0 | 0.00 | 0.00 | 0.00 | 86 | 1013.2 |
| 20260831102532 | 60 | 46 | 0.0 | 1.0 | 0.00 | 0.00 | 0.00 | 86 | 1013.1 |
| 20260831102023 | 60 | 46 | 0.0 | 1.0 | 0.00 | 0.00 | 0.00 | 86 | 1013.1 |
| 20260831101523 | 60 | 1 | 0.0 | 1.0 | 0.00 | 0.00 | 0.00 | 85 | 1013.2 |
| 20260831101038 | 60 | 1 | 0.0 | 1.0 | 0.00 | 0.00 | 0.00 | 85 | 1013.1 |
| 20260831100605 | 60 | 269 | 0.0 | 1.0 | 0.00 | 0.00 | 0.00 | 85 | 1013.1 |
| 20260831100031 | 60 | 89 | 0.0 | 1.0 | 0.00 | 0.00 | 0.00 | 85 | 1013.1 |
| 20260831095533 | 61 | 89 | 0.0 | 1.0 | 0.00 | 0.00 | 0.00 | 85 | 1013.0 |
| 20260831095024 | 61 | 89 | 0.0 | 1.0 | 0.00 | 0.00 | 0.00 | 85 | 1012.9 |
| 20260831094526 | 61 | 46 | 0.0 | 1.0 | 0.00 | 0.00 | 0.00 | 85 | 1013.0 |
| 20260831094034 | 61 | 46 | 0.0 | 1.0 | 0.00 | 0.00 | 0.00 | 85 | 1013.0 |
| 20260831093532 | 61 | 63 | 0.0 | 1.0 | 0.00 | 0.00 | 0.00 | 85 | 1012.9 |
| 20260831093023 | 61 | 63 | 0.0 | 1.0 | 0.00 | 0.00 | 0.00 | 84 | 1012.8 |
| 20260831092517 | 61 | 314 | 0.0 | 1.0 | 0.00 | 0.00 | 0.00 | 84 | 1013.0 |
| 20260831092030 | 61 | 344 | 0.0 | 1.0 | 0.00 | 0.00 | 0.00 | 84 | 1012.9 |
| 20260831091527 | 61 | 314 | 0.0 | 1.0 | 0.00 | 0.00 | 0.00 | 84 | 1012.9 |
| 20260831091038 | 61 | 178 | 0.0 | 2.0 | 0.00 | 0.00 | 0.00 | 83 | 1012.9 |
| 20260831090604 | 61 | 46 | 0.0 | 2.0 | 0.00 | 0.00 | 0.00 | 83 | 1012.9 |
| 20260831090029 | 62 | 135 | 0.0 | 1.0 | 0.00 | 0.00 | 0.00 | 83 | 1012.7 |